Disclaimer

Please do not use the information listed here in-flight or in-navigation, as they are not provided to us by the airports but are provided by volunteers, so they might be outdated.

Search


Regions


Airport information page

Radio informations:
Tower (TWR) - 119.6 MHz

Airport informations:
Latitude: 60° 07' 19.93" N
Longitude: 019° 53' 53.36" E
Elevation: 17 feet - 5 meters
Operating hours: N/A
Operating agency: Civil government, landing fees and diplomatic clearance may be required
Timezone: UTC+2(+3DT) - Last Sunday in March to last Sunday in October
Fuel: Jet A1, without icing nhibitor.

100/130 MIL Spec, low lead, aviation gasoline (BLUE)

Runway information:
03/21 - 6243 x 197 feet< - >1903 x 60 meters

Recent METARs:
EFMA 171320Z AUTO 35008KT 1400 R21/2000D -SN OVC011 M03/M05 Q0986
EFMA 171350Z AUTO 34009KT 320V030 1900 -SN OVC009 M03/M05 Q0987
EFMA 171420Z AUTO 34010KT 320V020 1800 -SN OVC010 M03/M05 Q0988

Airport on the map: